Location: Winthrop
(48.4780°N, 120.1850°W)
Time: 03:08:14
(UTC-08:00)

Vanguard 1 - Visible Passes

Search period start: 05 March 2024 00:00
Search period end: 15 March 2024 01:00
Orbit: 653 x 3825 km, 34.3° (Epoch: 04 March)

Date Brightness Start Highest point End Pass type
(mag) Time Alt. Az. Time Alt. Az. Time Alt. Az.
05 Mar 12.4 18:42:08 10° SW 18:51:47 43° SSE 19:06:23 14° ESE visible
05 Mar 12.7 21:01:27 10° WSW 21:14:08 44° SSW 21:19:01 38° SSE visible
05 Mar 13.4 23:23:30 10° W 23:31:40 25° SW 23:31:40 25° SW visible
06 Mar 12.4 19:02:06 10° WSW 19:11:59 44° S 19:25:24 17° ESE visible
06 Mar 12.8 21:21:49 10° W 21:34:29 40° SSW 21:38:03 37° S visible
06 Mar 13.6 23:44:53 10° W 23:50:41 19° WSW 23:50:41 19° WSW visible
07 Mar 12.4 19:22:10 10° WSW 19:32:14 44° S 19:44:27 20° ESE visible
07 Mar 12.9 21:42:19 10° W 21:54:48 35° SSW 21:57:05 34° S visible
08 Mar 13.8 00:07:04 10° WSW 00:09:44 13° WSW 00:09:44 13° WSW visible
08 Mar 12.5 19:42:19 10° WSW 19:52:32 42° S 20:03:31 22° SE visible
08 Mar 13.1 22:03:00 10° W 22:15:06 30° SSW 22:16:09 30° SSW visible
09 Mar 12.6 20:02:33 10° WSW 20:12:50 39° S 20:22:37 23° SE visible
09 Mar 13.3 22:23:58 10° WSW 22:35:16 25° SSW 22:35:16 25° SSW visible
10 Mar 12.7 21:22:54 10° WSW 21:33:09 35° SSW 21:41:46 24° SSE visible
10 Mar 13.4 23:45:27 10° WSW 23:54:25 20° SW 23:54:25 20° SW visible
11 Mar 12.3 19:23:44 10° WSW 19:31:46 38° S 19:45:32 10° ESE visible
11 Mar 12.9 21:43:24 10° WSW 21:53:28 31° SSW 22:00:57 23° SSE visible
12 Mar 13.6 00:07:57 10° WSW 00:13:36 14° SW 00:13:36 14° SW visible
12 Mar 12.4 19:43:52 10° WSW 19:52:00 37° S 20:05:44 10° SE visible
12 Mar 13.1 22:04:06 10° WSW 22:13:46 26° SSW 22:20:11 21° S visible
13 Mar 12.5 20:04:05 10° WSW 20:12:15 34° S 20:25:43 10° SE visible
13 Mar 13.2 22:25:10 10° WSW 22:34:04 21° SSW 22:39:28 18° S visible
14 Mar 12.6 20:24:27 10° WSW 20:32:32 30° SSW 20:45:25 10° SE visible
14 Mar 13.4 22:46:55 10° WSW 22:54:20 16° SSW 22:58:49 15° SSW visible
